Location: General Nathan Twining Observatory
(34.5931°N, 106.8201°W)
Time: 21:12:03
(UTC-06:00)

ADEOS II - Visible Passes

Search period start: 21 October 2014 00:00
Search period end: 31 October 2014 00:00
Orbit: 802 x 802 km, 98.3° (Epoch: 21 October)

Date Brightness Start Highest point End Pass type
(mag) Time Alt. Az. Time Alt. Az. Time Alt. Az.
21 Oct 3.1 06:44:18 10° NNE 06:49:26 52° E 06:54:32 10° S visible
21 Oct 5.4 19:42:35 10° SW 19:45:28 15° W 19:48:22 10° WNW visible
22 Oct 4.4 06:18:49 10° NE 06:23:19 29° E 06:27:48 10° SSE visible
22 Oct 4.5 19:14:52 10° SSW 19:19:16 27° W 19:23:41 10° NW visible
23 Oct 5.3 05:54:01 10° NE 05:57:07 16° E 06:00:12 10° SE visible
23 Oct 3.3 18:48:05 10° S 18:53:08 49° W 18:58:14 10° NNW visible
25 Oct 3.3 06:40:04 10° NNE 06:45:09 48° E 06:50:11 10° S visible
25 Oct 5.2 19:37:58 10° SW 19:41:09 16° W 19:44:22 10° NW visible
26 Oct 4.5 06:14:39 10° NE 06:19:01 26° E 06:23:22 10° SSE visible
26 Oct 4.3 19:10:25 10° SSW 19:14:57 29° W 19:19:31 10° NW visible
27 Oct 5.4 05:50:02 10° ENE 05:52:48 14° E 05:55:33 10° SE visible
27 Oct 3.1 18:43:44 10° S 18:48:51 54° W 18:54:00 10° NNW visible
29 Oct 3.5 06:35:50 10° NNE 06:40:50 44° E 06:45:49 10° S visible
29 Oct 5.1 19:33:22 10° SW 19:36:49 18° W 19:40:18 10° NW visible
30 Oct 4.6 06:10:28 10° NE 06:14:42 24° E 06:18:53 10° SSE visible
30 Oct 4.1 19:05:59 10° SSW 19:10:38 32° W 19:15:19 10° NW visible
